{"data":{"norad_id":55810,"intl_designator":"2023-029Q","name":"ONEWEB-0646","alt_names":[],"object_type":"PAYLOAD","status":"ACTIVE","operator":null,"country":"UK","launch_date":"2023-03-09","launch_site_code":"AFETR","launch_vehicle":null,"mission":null,"orbit_class":"UNKNOWN","rcs_meters":null,"size_class":null,"mass_kg":null,"dimensions":null,"purposes":["comms"],"wikipedia_slug":null,"has_3d_model":false,"image_url":null,"decayed_at":null,"tle_current":{"epoch":"2026-09-19T08:57:30.337920Z","epoch_age_seconds":115568,"freshness":"FRESH","line1":"1 55810U 23029Q   26262.37326780  .00000013  00000+0 -30132-6 0  9998","line2":"2 55810  87.9102 286.2077 0001731  85.7804 274.3526 13.19726994171317","mean_motion":13.19726994,"eccentricity":0.0001731,"inclination_deg":87.9102,"raan_deg":286.2077,"arg_perigee_deg":85.7804,"mean_anomaly_deg":274.3526,"bstar":-3.0132e-7,"rev_number":17131,"period_min":109.11347623765,"perigee_km":1184.4536219519,"apogee_km":1187.0722441088,"semimajor_km":7563.8999330304,"source":"CELESTRAK","updated_at":"2026-09-20T09:00:44.761840Z"}}}